Temperature
23 23 23 23 22 22 21 21 21 21 20 20 20 20 20 20 20 19 19 19 19 19 19 19 19 19 19 19 18 18 18 18 18 18 18 18 18 18 18 18 18 18 18
23 23 23 23 22 22 22 21 21 21 20 20 20 20 20 20 19 19 19 19 19 19 19 19 19 19 19 19 18 18 18 18 18 18 18 18 18 18 18 18 18 18 18
23 23 23 22 22 22 22 21 21 21 20 20 20 20 20 20 19 19 19 19 19 19 19 19 19 19 19 19 18 18 18 18 18 18 18 18 18 18 18 18 18 18 18
23 23 23 23 22 22 22 22 21 21 21 20 20 20 20 20 20 19 19 19 19 19 19 19 19 19 19 18 18 18 18 18 18 18 18 18 18 17 18 18 18 18 18
24 23 23 23 23 22 22 22 21 21 21 20 20 20 20 20 19 19 19 19 19 19 19 19 19 18 18 18 18 18 18 18 18 18 18 18 18 17 17 17 18 18 18
24 24 23 23 23 22 22 21 21 21 21 20 20 20 20 20 19 19 19 19 19 19 19 19 19 18 18 18 18 18 18 18 18 18 18 18 18 17 17 17 17 17 18
24 24 23 23 23 22 22 21 21 21 21 20 20 20 20 19 19 19 19 19 19 19 19 19 18 18 18 18 18 18 18 18 18 18 18 18 18 17 17 17 17 17 17
24 24 23 23 23 22 22 21 21 21 21 20 20 20 20 19 19 19 19 19 19 19 19 19 18 18 18 18 18 18 18 18 18 18 18 18 18 17 17 17 17 17 17
24 24 23 23 23 22 22 22 22 21 21 21 20 20 20 19 19 19 19 19 19 19 19 18 18 18 18 18 18 18 18 18 18 18 18 18 18 17 17 17 17 17 16
24 23 23 23 23 22 22 22 22 21 21 21 20 20 20 19 19 19 19 19 19 19 18 18 18 18 18 18 18 18 18 18 18 17 17 18 17 17 17 17 17 17 17
24 23 23 23 23 22 22 22 21 21 21 20 20 20 19 19 19 19 19 19 18 18 18 18 18 18 18 18 18 18 17 17 17 17 17 17 17 17 17 17 17 17 16
24 23 23 23 23 22 22 22 21 21 21 20 20 20 19 19 19 19 19 18 18 18 18 18 18 18 18 18 17 17 17 17 17 17 17 17 17 17 17 17 17 17 16
23 23 23 23 22 22 22 21 21 21 21 20 20 19 19 19 19 19 18 18 18 18 18 18 18 18 18 18 17 17 17 17 17 17 17 17 17 17 17 17 17 16 16
23 23 23 22 22 22 21 21 21 21 20 20 20 19 19 19 19 18 18 18 18 18 18 18 18 17 17 17 17 17 17 17 17 17 17 17 17 17 16 16 16 16 16
22 22 22 22 22 21 21 21 21 20 20 20 19 19 19 19 18 18 18 18 18 18 18 18 17 17 17 17 17 17 17 16 16 16 16 16 16 16 16 16 16 16 16
22 22 22 22 22 21 21 21 20 20 20 19 19 19 19 18 18 18 18 18 18 18 17 17 17 17 17 17 17 16 16 16 16 16 16 16 16 16 16 16 16 15 15
22 22 22 22 22 21 21 21 20 20 20 19 19 19 18 18 18 18 18 17 17 17 17 17 17 17 17 16 16 16 16 16 16 16 16 16 16 16 16 15 15 15 15
21 21 21 21 21 21 21 21 20 20 19 19 19 18 18 18 18 18 17 17 17 17 17 17 16 16 16 16 16 16 16 15 15 15 16 15 15 15 15 15 15 15 15
22 21 21 21 21 21 20 20 20 19 19 19 18 18 18 18 18 17 17 17 17 17 16 16 16 16 16 16 16 16 15 15 15 15 15 15 15 15 15 15 14 14 14
22 21 21 21 21 20 20 20 19 19 19 19 18 18 18 18 17 17 17 17 16 16 16 16 16 16 16 15 15 15 15 15 15 15 15 15 15 14 14 14 14 14 14
21 21 21 21 20 20 20 19 19 19 19 18 18 18 18 17 17 17 17 16 16 16 16 16 15 15 15 15 15 15 15 15 15 14 14 14 14 14 14 13 13 13 13
20 20 20 20 20 19 19 19 19 19 18 18 18 18 17 17 17 16 16 16 16 16 15 15 15 15 15 15 14 14 14 14 14 14 14 14 14 13 13 13 13 13 13
19 19 19 19 19 19 19 19 18 18 18 18 17 17 17 17 16 16 16 15 15 15 15 15 15 15 14 14 14 14 14 14 14 13 13 13 13 13 13 13 13 12 12
19 19 19 19 19 18 18 18 18 18 17 17 17 17 16 16 16 15 15 15 15 15 15 15 15 14 14 14 14 14 14 13 13 13 13 13 13 13 13 12 12 12 12
18 18 18 18 18 18 18 18 18 17 17 17 17 16 16 16 15 15 15 15 15 15 15 15 14 14 14 14 13 13 13 13 13 13 13 13 12 12 12 12 12 12 11
18 18 17 17 17 17 17 17 17 17 17 16 16 16 15 15 15 15 15 14 14 14 14 14 14 14 14 13 13 13 13 12 12 12 12 12 12 12 11 11 11 11 11
Wind_Speed
9 9 10 10 9 8 7 7 6 5 4 3 3 3 2 2 2 1 3 4 5 5 4 2 2 2 2 2 2 2 1 1 1 1 2 3 2 2 2 2 2 4 6
9 10 10 10 9 8 8 7 7 6 5 3 3 3 3 2 2 1 1 3 4 4 4 3 2 2 2 1 1 2 1 1 2 2 1 2 4 3 2 2 3 3 3
13 12 11 10 10 9 9 9 7 6 6 5 3 3 3 2 1 1 0 1 3 3 2 2 2 2 2 2 2 2 3 2 1 1 3 2 2 3 3 2 2 2 2
12 12 12 11 11 11 9 8 8 7 6 5 5 5 4 3 3 2 2 1 2 2 2 2 2 2 2 2 2 2 2 2 2 1 1 3 3 2 2 3 2 2 2
14 14 14 13 12 10 9 7 7 6 5 6 6 5 4 3 2 2 2 2 1 1 1 2 2 2 2 2 1 1 2 2 2 2 1 1 1 2 2 3 3 3 3
12 12 11 10 9 9 8 7 7 6 5 6 6 6 6 4 4 3 2 1 1 1 2 1 2 2 2 2 2 2 2 2 2 2 1 2 1 2 2 3 3 3 3
10 9 10 11 10 10 9 8 8 6 6 6 5 5 6 5 5 4 3 3 1 1 2 2 2 2 2 3 2 2 2 2 2 2 2 2 2 2 2 2 2 2 2
10 9 10 11 10 10 10 10 9 7 7 6 5 5 5 4 3 4 3 3 3 3 3 3 2 2 2 2 2 2 2 1 2 3 2 2 2 2 2 3 2 1 2
10 9 9 9 10 10 10 11 10 8 7 7 6 5 5 4 4 3 3 3 3 3 2 2 2 2 2 2 2 2 2 1 2 2 2 2 2 2 2 2 3 3 2
8 8 7 7 7 8 7 8 8 8 7 7 6 5 5 5 4 3 3 3 2 2 2 2 2 2 2 2 1 2 2 1 2 2 1 1 1 1 1 1 2 3 3
9 9 8 7 7 7 7 6 6 6 6 6 5 5 4 4 3 3 3 3 2 2 2 2 2 2 2 2 2 2 2 2 2 2 1 2 2 1 1 1 1 1 2
8 9 8 7 7 7 7 6 6 6 6 6 5 5 4 4 3 3 3 2 2 2 2 2 2 2 2 2 2 3 2 2 2 2 2 2 1 1 1 1 1 2 2
7 7 6 7 7 7 7 7 6 6 6 6 6 5 4 4 4 4 3 2 2 2 2 2 2 2 2 3 3 3 3 3 3 3 3 3 1 1 1 1 1 1 1
7 7 5 6 6 6 7 7 6 5 6 6 6 5 5 5 4 4 3 3 2 2 2 2 2 2 2 3 3 3 3 3 2 2 2 2 2 2 2 1 1 1 1
7 7 6 5 5 5 5 6 6 6 6 6 6 5 4 4 3 3 3 2 2 2 2 2 2 2 2 2 2 3 3 2 2 2 2 3 3 3 2 2 2 1 1
6 6 6 6 5 5 5 6 6 6 6 6 6 5 5 4 4 4 3 2 2 2 2 3 2 2 3 3 3 2 2 2 2 2 2 2 1 2 1 2 2 3 3
5 5 5 6 6 6 6 6 6 6 6 6 5 5 5 5 5 5 3 3 3 2 3 3 2 3 4 4 4 4 3 3 3 3 3 3 2 2 1 1 2 2 3
5 3 3 3 4 4 5 5 5 5 5 5 5 5 5 5 5 4 4 4 3 3 3 3 3 3 4 4 4 4 3 3 3 4 4 4 3 2 2 1 2 2 3
5 4 4 4 4 4 4 5 5 5 5 5 5 5 5 5 4 5 5 4 4 4 3 3 3 3 4 4 4 3 2 2 4 3 3 3 3 3 1 0 2 3 4
3 3 3 3 4 4 4 5 4 4 5 5 5 4 4 5 5 5 5 3 3 4 3 2 2 3 3 3 2 2 1 1 2 2 2 3 3 3 2 1 2 3 4
2 3 4 4 4 4 4 4 4 5 6 5 4 4 4 5 5 4 3 3 3 2 2 2 1 1 1 1 1 1 1 2 2 2 2 2 3 3 3 3 3 5 4
1 2 2 2 2 3 5 3 5 6 4 4 4 4 4 3 3 3 2 2 3 3 2 1 1 1 1 0 1 1 1 1 2 3 3 3 3 3 3 3 4 3 1
2 1 2 2 2 3 4 4 4 3 3 3 3 3 2 2 2 3 3 3 2 3 2 2 2 1 1 1 2 2 1 1 1 3 4 4 4 3 3 4 4 2 0
1 2 2 1 2 2 2 4 3 3 3 3 3 2 2 2 1 1 2 3 3 3 3 3 3 2 1 1 1 1 1 2 1 2 3 3 3 2 2 2 1 1 2
1 2 2 1 2 2 2 2 2 3 3 2 2 2 2 2 1 1 1 2 3 4 5 4 4 4 3 4 3 2 1 1 1 0 1 2 1 2 1 1 2 1 1
2 2 2 1 1 0 1 1 1 4 4 3 2 2 2 2 2 2 1 2 0 1 2 4 4 3 3 3 3 3 2 1 1 2 0 1 1 1 1 1 2 1 1
Wind_Direction
165 153 155 158 148 145 147 150 146 146 133 121 121 123 129 132 129 143 158 155 160 161 154 158 161 148 163 199 200 176 193 222 166 69 338 321 290 240 228 223 221 224 221
156 161 162 161 158 158 159 159 159 157 158 157 154 151 146 144 140 125 129 159 165 162 159 157 171 166 170 205 207 166 175 212 159 140 106 342 337 325 262 218 213 224 211
171 174 169 168 164 168 170 170 171 167 165 156 132 111 86 74 71 98 156 191 172 169 165 173 171 173 173 194 210 188 175 205 242 171 155 159 242 297 313 283 251 235 230
173 174 173 173 174 177 175 172 171 168 166 153 145 145 147 161 195 191 191 193 164 162 165 167 180 186 179 188 220 197 179 168 222 265 210 190 180 185 295 312 296 270 243
177 179 179 177 177 174 171 171 167 167 162 154 154 150 153 169 169 158 168 193 219 195 184 177 188 192 187 196 206 202 185 178 191 208 228 211 193 173 188 274 304 314 287
177 177 173 164 165 165 160 160 161 169 167 159 154 154 156 157 151 159 180 212 249 261 248 221 211 206 202 204 202 202 199 193 191 198 193 184 194 208 191 232 265 281 286
166 169 167 165 164 162 164 167 166 173 176 166 165 165 164 165 173 181 190 193 210 238 253 238 219 219 217 213 206 204 218 208 206 211 219 214 219 204 191 200 247 271 286
160 169 172 167 167 169 170 172 175 177 176 171 174 172 166 169 176 181 180 191 207 220 231 222 224 227 215 211 202 215 233 225 227 238 230 230 246 220 194 193 197 268 301
159 163 165 166 169 174 179 177 177 177 177 176 174 173 173 172 178 182 178 196 210 214 217 215 216 224 213 209 196 216 243 248 249 253 246 240 259 246 224 202 185 185 241
153 155 161 165 164 170 174 173 170 175 176 176 179 181 183 184 179 175 187 197 214 217 199 218 219 216 204 202 199 225 244 240 260 244 254 268 277 283 265 226 206 188 197
158 162 166 161 155 152 150 161 168 167 168 172 175 175 179 181 172 178 196 199 209 206 202 208 207 209 209 206 191 224 224 224 260 270 254 268 272 279 281 262 212 210 194
163 163 160 150 150 155 155 163 173 174 175 171 166 171 173 168 169 186 200 192 205 224 216 207 208 216 217 218 205 221 235 224 239 257 259 271 283 292 273 253 252 242 222
150 150 154 158 162 164 167 169 177 183 181 166 162 164 168 174 185 196 202 194 198 216 210 194 209 225 230 234 232 221 226 229 228 230 230 245 236 275 283 267 275 264 268
133 135 152 168 171 169 172 166 169 173 173 169 169 175 185 190 193 195 194 194 192 193 202 204 219 231 237 243 234 221 229 236 244 241 232 225 208 219 238 263 263 255 254
131 135 144 150 157 161 172 175 167 169 170 166 171 184 185 177 175 182 195 202 205 212 212 214 229 239 237 245 225 223 222 223 234 244 243 226 208 210 225 243 239 221 227
143 144 149 147 156 165 176 180 172 170 166 167 176 176 170 172 179 186 193 202 218 242 232 224 231 247 259 262 251 233 236 231 216 238 262 255 242 249 270 262 253 222 216
129 146 164 176 179 177 171 172 177 169 169 175 180 183 182 184 196 201 198 219 232 245 252 237 237 250 258 257 250 238 234 240 235 227 233 252 264 260 256 301 323 292 252
140 158 173 176 175 169 169 173 171 170 175 179 183 191 190 199 204 197 201 217 227 235 244 239 229 238 264 264 253 251 248 243 244 229 216 218 242 254 255 286 322 310 292
157 169 178 175 163 159 169 164 167 173 176 186 194 198 195 198 198 202 211 215 214 228 239 239 225 234 262 258 252 247 237 243 255 244 225 215 231 248 244 258 300 309 307
145 148 145 139 153 172 153 151 168 174 188 198 199 194 192 195 203 214 217 213 207 216 221 224 228 227 252 262 259 246 196 250 274 283 271 246 239 249 238 202 222 264 283
138 141 149 159 179 176 151 162 184 203 207 200 195 196 201 206 209 212 211 210 210 205 208 215 245 249 257 262 261 262 227 223 252 268 272 264 254 252 248 233 231 240 257
101 122 138 156 181 170 158 172 214 216 201 192 195 204 210 218 212 199 214 214 200 191 204 212 235 305 317 302 278 257 246 213 215 253 262 264 263 253 249 254 249 254 285
132 130 142 153 178 176 162 184 226 209 184 186 202 211 205 209 196 192 199 202 196 192 197 188 200 239 302 304 280 256 261 269 245 265 268 274 271 264 257 253 248 247 201
151 149 142 171 215 204 187 201 211 180 167 185 205 201 189 200 207 193 190 189 189 188 194 191 197 200 215 275 306 314 331 337 332 314 315 314 303 283 262 277 281 226 201
142 132 140 173 222 207 212 219 190 157 163 185 199 197 191 183 185 192 209 199 202 198 195 200 190 186 212 236 217 211 245 252 253 2 15 6 357 352 341 324 307 282 237
118 100 89 83 313 303 271 281 210 167 167 184 201 205 204 195 183 163 35 7 272 213 190 198 188 192 202 194 200 220 235 243 155 123 133 293 294 281 281 284 293 301 292
Height
1517 1519 1521 1522 1523 1525 1526 1528 1529 1530 1531 1532 1532 1533 1534 1535 1535 1535 1536 1536 1536 1536 1536 1536 1536 1536 1535 1535 1535 1535 1535 1535 1535 1535 1534 1534 1534 1533 1533 1532 1532 1531 1531
1516 1518 1519 1521 1523 1524 1526 1527 1529 1530 1531 1532 1533 1534 1534 1535 1535 1535 1536 1536 1536 1536 1536 1535 1535 1535 1535 1534 1534 1534 1534 1534 1534 1534 1533 1533 1533 1532 1531 1531 1530 1530 1530
1514 1516 1518 1520 1522 1524 1525 1526 1528 1529 1530 1531 1532 1533 1534 1534 1534 1535 1535 1535 1535 1535 1535 1534 1534 1534 1534 1533 1533 1533 1533 1532 1533 1533 1533 1532 1531 1530 1530 1530 1529 1529 1528
1512 1514 1516 1518 1520 1522 1524 1526 1527 1528 1529 1531 1531 1532 1532 1532 1533 1533 1533 1534 1534 1534 1534 1534 1533 1533 1533 1532 1532 1531 1531 1531 1531 1531 1531 1531 1531 1530 1529 1529 1528 1527 1527
1508 1511 1513 1515 1518 1520 1522 1524 1526 1527 1528 1529 1530 1531 1531 1532 1532 1532 1532 1533 1533 1533 1533 1533 1532 1532 1531 1531 1531 1530 1529 1529 1529 1529 1529 1529 1529 1528 1528 1526 1526 1526 1525
1506 1509 1512 1514 1517 1519 1521 1523 1525 1526 1527 1528 1529 1529 1530 1530 1531 1531 1531 1531 1531 1531 1531 1531 1531 1530 1530 1530 1529 1529 1528 1527 1527 1527 1527 1527 1527 1526 1525 1525 1524 1523 1523
1505 1508 1511 1513 1515 1517 1519 1521 1523 1524 1526 1527 1527 1528 1528 1529 1530 1530 1530 1530 1530 1530 1529 1529 1529 1529 1528 1528 1527 1527 1526 1526 1525 1525 1525 1525 1525 1524 1524 1523 1522 1522 1521
1503 1506 1509 1511 1514 1516 1518 1520 1521 1523 1524 1525 1526 1527 1527 1528 1528 1528 1528 1528 1528 1528 1528 1528 1527 1527 1527 1526 1525 1525 1524 1524 1524 1523 1523 1523 1523 1522 1522 1521 1521 1519 1519
1502 1505 1508 1510 1513 1515 1517 1518 1520 1521 1523 1524 1525 1525 1526 1526 1527 1527 1527 1527 1527 1526 1526 1526 1525 1525 1525 1524 1524 1523 1522 1522 1522 1521 1521 1520 1520 1520 1520 1519 1519 1518 1516
1502 1505 1507 1509 1511 1513 1516 1518 1519 1520 1521 1522 1523 1524 1524 1525 1525 1526 1525 1525 1525 1525 1524 1524 1523 1523 1523 1522 1521 1521 1520 1520 1519 1518 1518 1517 1517 1517 1517 1516 1516 1516 1515
1500 1503 1506 1508 1510 1512 1514 1516 1518 1519 1520 1520 1521 1522 1522 1523 1523 1524 1524 1523 1523 1523 1522 1522 1521 1521 1520 1520 1519 1518 1518 1517 1517 1516 1516 1515 1515 1515 1514 1514 1513 1513 1513
1499 1502 1504 1506 1509 1511 1513 1515 1516 1517 1518 1518 1519 1519 1520 1521 1521 1521 1521 1521 1521 1520 1520 1519 1519 1518 1518 1517 1516 1515 1515 1515 1514 1514 1514 1513 1513 1512 1512 1511 1511 1510 1510
1498 1500 1503 1505 1507 1509 1511 1512 1514 1515 1516 1516 1517 1518 1518 1519 1519 1519 1519 1519 1518 1518 1518 1517 1516 1516 1515 1514 1513 1512 1512 1511 1512 1512 1511 1511 1511 1510 1510 1509 1508 1507 1507
1497 1499 1502 1504 1506 1508 1509 1510 1511 1512 1513 1514 1515 1515 1516 1517 1517 1517 1517 1517 1516 1516 1515 1515 1514 1513 1512 1511 1510 1509 1508 1508 1509 1509 1509 1509 1509 1508 1507 1506 1505 1505 1504
1497 1499 1501 1503 1505 1506 1508 1509 1509 1510 1511 1512 1512 1513 1514 1515 1515 1515 1515 1514 1514 1514 1513 1513 1512 1511 1510 1508 1507 1506 1505 1506 1506 1506 1506 1506 1506 1505 1505 1504 1502 1502 1501
1497 1498 1500 1500 1502 1504 1505 1506 1507 1507 1508 1509 1510 1510 1511 1512 1512 1512 1512 1511 1511 1511 1511 1510 1509 1508 1507 1506 1505 1504 1504 1504 1504 1503 1503 1503 1503 1502 1502 1501 1500 1499 1498
1496 1497 1498 1499 1500 1501 1503 1504 1505 1506 1506 1506 1507 1508 1509 1509 1509 1509 1509 1509 1509 1508 1508 1507 1506 1505 1504 1504 1503 1502 1502 1501 1501 1501 1500 1500 1500 1499 1498 1497 1496 1496 1495
1496 1497 1497 1498 1498 1499 1501 1502 1503 1503 1503 1504 1505 1505 1506 1506 1506 1506 1506 1506 1506 1506 1505 1504 1503 1502 1502 1501 1500 1500 1499 1498 1498 1498 1497 1497 1496 1496 1495 1494 1493 1492 1491
1494 1495 1495 1496 1496 1497 1498 1499 1500 1500 1500 1501 1501 1502 1502 1503 1503 1503 1503 1503 1503 1503 1502 1501 1500 1499 1499 1498 1497 1497 1495 1495 1494 1494 1494 1493 1493 1492 1492 1491 1489 1488 1487
1492 1493 1494 1495 1495 1496 1496 1497 1497 1497 1497 1498 1498 1499 1499 1499 1500 1500 1500 1500 1500 1499 1499 1498 1497 1497 1496 1495 1494 1494 1493 1491 1491 1490 1490 1489 1489 1489 1488 1487 1486 1485 1484
1490 1491 1492 1493 1493 1493 1494 1494 1494 1494 1494 1495 1495 1496 1496 1496 1496 1497 1497 1497 1496 1496 1495 1495 1494 1494 1493 1492 1491 1491 1490 1488 1487 1487 1486 1486 1485 1485 1485 1484 1483 1482 1481
1489 1490 1490 1491 1491 1492 1491 1491 1491 1491 1492 1492 1492 1492 1493 1493 1493 1493 1493 1493 1493 1492 1492 1491 1491 1490 1490 1489 1488 1488 1487 1486 1484 1483 1483 1482 1482 1482 1481 1481 1480 1479 1478
1487 1488 1488 1488 1489 1489 1489 1488 1488 1488 1489 1489 1489 1489 1489 1490 1490 1490 1489 1490 1490 1489 1488 1488 1487 1487 1487 1486 1485 1484 1483 1482 1481 1480 1480 1479 1479 1478 1478 1477 1476 1476 1475
1486 1486 1486 1485 1486 1486 1486 1486 1486 1485 1485 1485 1485 1485 1485 1486 1486 1486 1486 1486 1486 1486 1485 1485 1485 1484 1484 1483 1482 1481 1481 1479 1478 1477 1477 1477 1476 1475 1475 1474 1473 1473 1472
1483 1483 1483 1482 1482 1482 1482 1482 1482 1482 1482 1482 1482 1482 1482 1483 1483 1483 1483 1483 1483 1483 1482 1482 1482 1481 1481 1481 1481 1480 1478 1477 1476 1475 1475 1474 1473 1473 1472 1471 1471 1470 1470
1481 1481 1480 1480 1480 1479 1478 1478 1478 1478 1478 1478 1478 1479 1479 1479 1479 1480 1480 1480 1480 1480 1480 1479 1479 1478 1479 1478 1478 1477 1476 1475 1474 1473 1472 1472 1471 1470 1470 1469 1468 1468 1467